CCA2675 RKPC-ZBAA

Flight info

Callsign CCA2675
Flight time 2h 0m
Altitude 30000
Route LIMDI1E/07 LIMDI Y677 TOLIS Y655 NONOS Z55 AGAVO/K0789S0840 A591 IKEKA W4 HCH W200 DOVIV W55 DUMAP
Aircraft B738/M-SDE2E3FGHIRWXY/LB1

Departure

Time 2025-09-05 02:38
Airport Jeju International Airport (RKPC)

Arrival

Time 2025-09-05 04:38
Airport Beijing Capital International Airport (ZBAA)
Time Latitude Longitude Altitude Speed Heading
2025-09-05 02:14 33.50670 126.49128 89 ft 0 kts 148°
2025-09-05 02:27 33.50679 126.49121 88 ft 2 kts 148°
2025-09-05 02:27 33.50704 126.49102 87 ft 2 kts 148°
2025-09-05 02:28 33.50730 126.49084 85 ft 2 kts 151°
2025-09-05 02:29 33.50772 126.49092 84 ft 2 kts 226°
2025-09-05 02:29 33.50780 126.49106 84 ft 0 kts 239°
2025-09-05 02:31 33.50764 126.49076 84 ft 7 kts 237°
2025-09-05 02:31 33.50667 126.48886 84 ft 15 kts 238°
2025-09-05 02:32 33.50529 126.48616 88 ft 10 kts 247°
2025-09-05 02:32 33.50574 126.48546 85 ft 15 kts 332°
2025-09-05 02:33 33.50559 126.48334 83 ft 16 kts 238°
2025-09-05 02:34 33.50391 126.48007 92 ft 17 kts 238°
2025-09-05 02:34 33.50243 126.47719 95 ft 19 kts 238°
2025-09-05 02:35 33.50105 126.47449 93 ft 20 kts 238°
2025-09-05 02:35 33.49950 126.47146 88 ft 21 kts 237°
2025-09-05 02:35 33.49877 126.46996 87 ft 18 kts 259°
2025-09-05 02:36 33.49994 126.46876 78 ft 12 kts 21°
2025-09-05 02:37 33.50341 126.47531 87 ft 100 kts 58°
2025-09-05 02:37 33.51453 126.49702 589 ft 173 kts 59°
2025-09-05 02:38 33.52716 126.52132 1980 ft 178 kts 57°
2025-09-05 02:38 33.53374 126.53372 2496 ft 181 kts 58°
2025-09-05 02:39 33.55428 126.57413 3816 ft 208 kts 58°
2025-09-05 02:39 33.57029 126.60560 4603 ft 239 kts 59°
2025-09-05 02:39 33.57915 126.62302 5066 ft 253 kts 59°
2025-09-05 02:40 33.59837 126.66084 6012 ft 280 kts 59°
2025-09-05 02:41 33.62177 126.72565 8032 ft 292 kts 95°
2025-09-05 02:41 33.60404 126.76862 8938 ft 301 kts 139°
2025-09-05 02:42 33.56985 126.79642 8979 ft 293 kts 151°
2025-09-05 02:42 33.53433 126.81959 8987 ft 289 kts 160°
2025-09-05 02:42 33.51475 126.82465 8974 ft 289 kts 182°
2025-09-05 02:43 33.46697 126.78654 8973 ft 285 kts 236°
2025-09-05 02:43 33.45649 126.76654 8973 ft 285 kts 239°
2025-09-05 02:44 33.42596 126.70494 8979 ft 285 kts 238°
2025-09-05 02:45 33.40532 126.66463 8986 ft 287 kts 238°
2025-09-05 02:45 33.38847 126.62167 8975 ft 285 kts 261°
2025-09-05 02:46 33.39469 126.57563 9472 ft 282 kts 285°
2025-09-05 02:46 33.40541 126.52911 10423 ft 300 kts 283°
2025-09-05 02:46 33.41061 126.50470 10872 ft 314 kts 283°
2025-09-05 02:47 33.42192 126.45180 11754 ft 342 kts 283°
2025-09-05 02:47 33.43418 126.39462 12475 ft 371 kts 283°
2025-09-05 02:48 33.44751 126.33256 13126 ft 398 kts 283°
2025-09-05 02:49 33.46844 126.23483 14955 ft 411 kts 283°
2025-09-05 02:49 33.48257 126.16833 16192 ft 419 kts 283°
2025-09-05 02:50 33.49708 126.10004 17315 ft 428 kts 283°
2025-09-05 02:50 33.51185 126.03034 18309 ft 439 kts 283°
2025-09-05 02:50 33.51930 125.99512 18814 ft 443 kts 283°
2025-09-05 02:51 33.53456 125.92265 19751 ft 453 kts 283°
2025-09-05 02:51 33.54998 125.84926 20631 ft 462 kts 284°
2025-09-05 02:52 33.56575 125.77389 21518 ft 470 kts 284°
2025-09-05 02:53 33.58969 125.65930 22883 ft 480 kts 285°
2025-09-05 02:53 33.60599 125.58116 23832 ft 485 kts 285°
2025-09-05 02:53 33.61416 125.54184 24236 ft 490 kts 285°
2025-09-05 02:54 33.64711 125.38223 25942 ft 502 kts 285°
2025-09-05 02:57 33.72136 125.01836 29883 ft 498 kts 285°
2025-09-05 02:58 33.77712 124.74011 29884 ft 490 kts 285°
2025-09-05 03:00 33.89204 124.45735 29880 ft 475 kts 328°
2025-09-05 03:03 34.17233 124.41418 29891 ft 457 kts
2025-09-05 03:05 34.42577 124.41466 29885 ft 455 kts
2025-09-05 03:07 34.67822 124.41473 29882 ft 452 kts
2025-09-05 03:09 34.92974 124.41459 29879 ft 452 kts
2025-09-05 03:11 35.18116 124.41467 29876 ft 453 kts
2025-09-05 03:14 35.65342 124.41482 29877 ft 452 kts
2025-09-05 03:17 35.93718 124.41477 29856 ft 455 kts
2025-09-05 03:18 36.15903 124.41472 29859 ft 454 kts
2025-09-05 03:20 36.41329 124.41473 29971 ft 458 kts 360°
2025-09-05 03:23 36.69805 124.39495 29965 ft 458 kts 335°
2025-09-05 03:25 36.91034 124.21974 29959 ft 457 kts 325°
2025-09-05 03:27 37.08097 123.99560 29955 ft 460 kts 287°
2025-09-05 03:29 37.01252 123.69549 29962 ft 472 kts 238°
2025-09-05 03:30 36.88567 123.45864 28787 ft 462 kts 239°
2025-09-05 03:33 36.88714 123.11331 27448 ft 465 kts 288°
2025-09-05 03:34 36.95415 122.84428 27447 ft 465 kts 287°
2025-09-05 03:37 37.03628 122.49720 27465 ft 465 kts 287°
2025-09-05 03:38 37.14567 122.25918 27465 ft 465 kts 320°
2025-09-05 03:41 37.26051 121.93298 27481 ft 463 kts 287°
2025-09-05 03:42 37.32914 121.66436 27487 ft 463 kts 288°
2025-09-05 03:45 37.41647 121.31937 27442 ft 463 kts 287°
2025-09-05 03:46 37.48962 121.05341 27451 ft 460 kts 292°
2025-09-05 03:49 37.59787 120.71870 27464 ft 461 kts 291°
2025-09-05 03:51 37.70598 120.42879 27446 ft 457 kts 300°
2025-09-05 03:53 37.83385 120.15255 27438 ft 456 kts 298°
2025-09-05 03:55 37.95912 119.87438 27431 ft 454 kts 297°
2025-09-05 03:57 38.08298 119.59651 27427 ft 454 kts 297°
2025-09-05 03:59 38.18560 119.30622 27425 ft 453 kts 289°
2025-09-05 04:01 38.28015 119.01168 27427 ft 452 kts 290°
2025-09-05 04:03 38.37421 118.71791 27058 ft 431 kts 289°
2025-09-05 04:05 38.45877 118.45198 24165 ft 399 kts 289°
2025-09-05 04:05 38.47932 118.38709 23035 ft 394 kts 288°
2025-09-05 04:06 38.49955 118.32306 21906 ft 391 kts 288°
2025-09-05 04:06 38.51969 118.25900 20776 ft 389 kts 288°
2025-09-05 04:06 38.52961 118.22730 20188 ft 388 kts 288°
2025-09-05 04:07 38.54953 118.16370 19015 ft 385 kts 288°
2025-09-05 04:07 38.56914 118.10100 17858 ft 380 kts 289°
2025-09-05 04:08 38.59803 118.00897 16553 ft 360 kts 290°
2025-09-05 04:09 38.61780 117.95280 16525 ft 335 kts 291°
2025-09-05 04:09 38.63736 117.89811 16530 ft 345 kts 291°
2025-09-05 04:10 38.65702 117.84177 16521 ft 346 kts 290°
2025-09-05 04:10 38.67647 117.78573 16523 ft 346 kts 290°
2025-09-05 04:11 38.69612 117.72957 16523 ft 345 kts 290°
2025-09-05 04:11 38.70590 117.70158 16524 ft 345 kts 290°
2025-09-05 04:11 38.72548 117.64544 16520 ft 346 kts 290°
2025-09-05 04:12 38.75442 117.56113 16529 ft 345 kts 291°
2025-09-05 04:13 38.77388 117.50510 16524 ft 344 kts 290°
2025-09-05 04:13 38.79317 117.44904 16526 ft 346 kts 290°
2025-09-05 04:14 38.81244 117.39309 16529 ft 344 kts 290°
2025-09-05 04:14 38.82217 117.36475 16529 ft 347 kts 290°
2025-09-05 04:14 38.84147 117.30860 16532 ft 344 kts 289°
2025-09-05 04:15 38.86740 117.25692 16536 ft 359 kts 315°
2025-09-05 04:16 38.93866 117.21983 16549 ft 373 kts 337°
2025-09-05 04:16 38.98813 117.19963 16346 ft 374 kts 336°
2025-09-05 04:17 39.03671 117.17843 15617 ft 363 kts 335°
2025-09-05 04:17 39.08380 117.15738 15567 ft 358 kts 335°
2025-09-05 04:18 39.13186 117.13591 15560 ft 368 kts 336°
2025-09-05 04:18 39.15599 117.12515 15556 ft 366 kts 335°
2025-09-05 04:18 39.20408 117.10408 15560 ft 367 kts 335°
2025-09-05 04:19 39.25270 117.08257 15550 ft 367 kts 336°
2025-09-05 04:19 39.30081 117.06107 15374 ft 368 kts 335°
2025-09-05 04:20 39.37235 117.02879 13945 ft 362 kts 335°
2025-09-05 04:21 39.41883 117.00817 13636 ft 346 kts 336°
2025-09-05 04:21 39.46526 116.98756 13314 ft 359 kts 336°
2025-09-05 04:21 39.48857 116.97710 13079 ft 355 kts 335°
2025-09-05 04:22 39.53458 116.95626 12606 ft 345 kts 335°
2025-09-05 04:22 39.58003 116.93565 12141 ft 347 kts 335°
2025-09-05 04:23 39.62593 116.91788 11676 ft 346 kts 345°
2025-09-05 04:23 39.67382 116.90999 11205 ft 347 kts 350°
2025-09-05 04:24 39.69770 116.90705 10958 ft 338 kts 350°
2025-09-05 04:24 39.76554 116.89761 10023 ft 320 kts 349°
2025-09-05 04:25 39.80880 116.89104 9382 ft 301 kts 349°
2025-09-05 04:25 39.84908 116.88489 8604 ft 288 kts 349°
2025-09-05 04:26 39.88878 116.87874 7552 ft 285 kts 350°
2025-09-05 04:26 39.92762 116.87266 6619 ft 277 kts 351°
2025-09-05 04:27 39.98381 116.86459 5303 ft 263 kts 350°
2025-09-05 04:27 40.00134 116.85994 5021 ft 251 kts 337°
2025-09-05 04:28 40.03574 116.81886 4939 ft 224 kts 297°
2025-09-05 04:29 40.04193 116.77983 4540 ft 217 kts 266°
2025-09-05 04:29 40.03281 116.74456 4046 ft 209 kts 222°
2025-09-05 04:30 40.00567 116.73766 3569 ft 207 kts 172°
2025-09-05 04:30 39.97722 116.74226 3094 ft 203 kts 175°
2025-09-05 04:31 39.94895 116.74703 2381 ft 207 kts 173°
2025-09-05 04:31 39.92072 116.75188 1986 ft 194 kts 173°
2025-09-05 04:31 39.90771 116.75100 1993 ft 185 kts 204°
2025-09-05 04:32 39.89289 116.70755 2003 ft 184 kts 265°
2025-09-05 04:33 39.88996 116.67450 2009 ft 183 kts 264°
2025-09-05 04:33 39.89966 116.64681 2004 ft 184 kts 339°
2025-09-05 04:34 39.92491 116.63998 2014 ft 184 kts 348°
2025-09-05 04:34 39.95006 116.63511 2013 ft 175 kts 352°
2025-09-05 04:35 39.97282 116.63132 1801 ft 160 kts 352°
2025-09-05 04:35 39.99418 116.62788 1390 ft 151 kts 351°
2025-09-05 04:35 40.00477 116.62618 1189 ft 156 kts 351°
2025-09-05 04:36 40.03617 116.62116 589 ft 151 kts 351°
2025-09-05 04:37 40.05732 116.61783 201 ft 153 kts 353°
2025-09-05 04:37 40.07390 116.61524 124 ft 56 kts 353°
2025-09-05 04:38 40.07824 116.61417 124 ft 26 kts 333°
2025-09-05 04:38 40.07931 116.61324 124 ft 7 kts 323°
2025-09-05 04:38 40.07961 116.61221 124 ft 5 kts 264°
2025-09-05 04:39 40.07952 116.61128 124 ft 4 kts 258°
2025-09-05 04:39 40.07876 116.61097 124 ft 8 kts 173°
2025-09-05 04:40 40.07643 116.61133 124 ft 11 kts 173°
2025-09-05 04:41 40.07490 116.61157 124 ft 10 kts 173°
2025-09-05 04:41 40.07340 116.61180 124 ft 12 kts 174°
2025-09-05 04:42 40.07160 116.61209 124 ft 13 kts 173°
2025-09-05 04:42 40.07068 116.61223 124 ft 13 kts 173°
2025-09-05 04:42 40.06875 116.61253 124 ft 14 kts 173°
2025-09-05 04:43 40.06681 116.61283 124 ft 13 kts 174°
2025-09-05 04:43 40.06510 116.61311 124 ft 11 kts 173°
2025-09-05 04:44 40.06352 116.61230 124 ft 9 kts 263°
2025-09-05 04:45 40.06333 116.61025 124 ft 13 kts 263°
2025-09-05 04:45 40.06309 116.60770 124 ft 13 kts 264°
2025-09-05 04:45 40.06298 116.60651 124 ft 12 kts 263°
2025-09-05 04:46 40.06278 116.60432 124 ft 11 kts 263°
2025-09-05 04:46 40.06251 116.60147 124 ft 19 kts 262°
2025-09-05 04:47 40.06221 116.59815 124 ft 17 kts 263°
2025-09-05 04:47 40.06241 116.59561 124 ft 11 kts 349°
2025-09-05 04:48 40.06514 116.59518 124 ft 15 kts 353°
2025-09-05 04:48 40.06625 116.59500 124 ft 16 kts 353°
2025-09-05 04:49 40.06865 116.59463 124 ft 17 kts 353°
2025-09-05 04:49 40.07089 116.59428 124 ft 15 kts 353°
2025-09-05 04:50 40.07291 116.59396 124 ft 13 kts 353°
2025-09-05 04:50 40.07445 116.59303 124 ft 10 kts 352°
2025-09-05 04:51 40.07597 116.59232 124 ft 5 kts 264°
2025-09-05 04:51 40.07593 116.59196 124 ft 0 kts 264°
2025-09-05 04:52 40.07592 116.59189 124 ft 0 kts 264°